Wind_Speed
6 6 5 6 6 6 7 7 6 6 6 6 6 6 6 6 6 7 6 6 7 8 8 8 9 10 10 10 10 11 12 13 13 12 13 13 13 13 13 13 13 14 14
6 6 6 5 6 6 6 6 5 5 5 6 6 6 6 6 7 7 7 8 8 9 9 9 10 9 9 9 9 10 12 12 13 13 13 13 13 14 14 14 14 14 15
7 6 6 5 6 5 5 5 5 5 6 6 6 6 6 7 7 7 7 8 8 8 9 9 10 10 10 10 10 10 10 11 12 13 14 14 14 14 15 15 15 16 16
7 6 6 6 6 6 6 5 5 5 6 6 6 6 7 7 7 7 7 7 8 8 8 8 10 10 10 10 10 10 10 10 11 12 13 14 14 14 15 15 16 16 17
6 6 6 7 6 6 6 6 5 6 5 6 6 6 7 7 7 7 7 7 7 7 7 7 9 10 10 10 10 10 10 10 11 12 12 14 14 15 15 15 16 16 16
6 6 6 6 6 6 6 6 6 6 6 6 6 6 6 7 7 7 6 6 6 6 6 7 6 7 9 9 9 10 10 11 11 12 13 14 14 15 15 15 16 16 16
6 5 5 5 5 5 6 6 6 6 6 6 6 6 6 6 6 6 6 6 5 5 6 6 5 5 6 8 8 9 10 10 11 12 13 13 14 14 15 15 16 17 17
5 5 4 4 5 4 5 5 6 6 6 6 6 6 6 6 5 5 5 6 5 6 6 6 6 6 6 7 8 9 10 11 11 11 11 12 13 13 14 15 16 16 17
4 4 4 4 3 3 4 4 5 5 5 6 5 5 5 5 4 4 5 5 5 6 6 6 6 6 7 8 8 8 9 10 10 10 11 12 13 13 14 15 16 17 17
3 3 3 3 3 4 4 4 4 4 4 5 5 5 5 5 5 5 6 6 7 7 7 7 6 7 8 8 9 8 9 9 10 11 12 12 13 14 14 15 16 17 17
3 3 3 3 3 3 3 4 5 5 4 5 5 5 5 5 6 6 7 7 7 7 6 7 8 8 8 8 8 9 9 11 11 12 12 13 14 14 15 16 17 17 18
3 3 3 3 3 3 4 4 4 5 5 5 5 5 6 6 6 7 7 7 7 6 7 7 8 8 8 9 9 10 11 12 12 13 13 14 15 16 16 17 18 18 19
4 4 4 3 4 4 4 5 5 5 5 5 5 6 6 7 7 7 7 7 7 7 7 7 8 9 9 10 11 11 12 13 14 14 15 16 16 17 17 17 18 18 19
4 4 4 4 4 4 5 5 6 6 6 6 6 7 6 7 7 7 7 7 7 7 7 8 9 10 10 11 12 13 14 15 15 15 16 16 17 17 18 18 19 20 20
4 4 4 4 4 4 5 6 6 6 6 7 7 7 7 7 7 7 8 8 8 8 8 8 9 10 11 12 13 13 14 15 15 16 16 17 18 19 19 20 21 21 22
5 5 5 5 5 5 6 6 6 7 7 7 8 8 8 8 8 8 8 8 8 8 8 9 9 10 11 12 13 13 14 15 15 16 17 17 18 20 20 21 21 22 23
5 5 5 5 6 6 6 7 7 7 6 7 8 8 8 9 9 9 9 8 8 9 9 10 10 11 12 13 14 14 14 15 16 17 18 18 20 20 21 22 22 23 23
5 5 5 5 5 5 6 6 6 6 7 7 8 8 8 8 9 9 9 9 9 9 10 11 12 12 13 14 14 15 16 17 18 19 20 21 21 22 22 23 23 24 25
7 7 6 5 5 5 6 6 6 6 7 8 8 8 9 9 8 9 9 9 10 10 11 12 13 14 14 15 16 17 18 19 19 20 21 22 23 23 23 24 25 26 26
7 7 6 7 6 6 7 7 7 8 8 8 8 8 8 8 9 10 10 10 11 12 13 14 14 15 16 17 18 19 20 20 21 22 23 23 23 24 24 25 26 26 27
8 7 7 7 7 8 8 8 8 8 8 9 9 9 10 10 10 11 12 12 13 14 15 15 16 17 17 18 19 20 21 22 23 23 24 24 25 25 26 26 27 28 29
8 8 8 9 9 9 9 9 9 10 10 10 10 10 10 11 11 12 14 15 15 16 16 17 18 19 20 20 21 22 23 24 24 25 26 26 27 27 27 27 28 29 30
9 10 10 10 10 10 10 10 10 11 12 12 12 12 13 13 14 14 15 16 17 17 18 18 19 20 22 22 23 24 25 25 26 27 27 27 28 28 29 29 30 31 32
10 11 11 11 11 11 11 11 12 13 13 13 14 14 15 15 15 16 17 17 18 19 19 20 21 22 23 23 24 25 26 27 27 27 28 28 29 30 31 31 32 32 33
11 11 11 12 12 12 12 13 13 14 14 15 16 16 16 17 17 18 19 19 20 20 20 21 22 23 24 25 26 27 27 28 28 29 29 29 30 31 32 33 33 34 35
12 12 12 13 13 13 13 14 15 15 16 16 17 18 19 19 19 20 20 21 21 22 23 23 24 24 25 26 27 28 29 29 29 29 30 31 32 33 33 33 34 35 36
Wind_Direction
275 272 264 259 259 255 249 249 255 252 238 236 244 249 242 237 241 244 249 251 252 251 251 252 252 249 249 252 256 255 254 249 247 249 251 254 256 255 256 259 260 259 259
279 274 266 260 255 248 252 249 250 246 238 235 239 246 243 240 241 246 252 256 257 256 253 252 253 251 252 256 257 255 252 249 247 250 253 255 259 258 258 260 262 261 262
270 269 260 256 251 250 251 245 242 242 237 231 234 241 242 241 245 252 256 258 260 260 257 256 253 251 253 255 257 257 251 253 254 254 255 258 260 258 261 263 264 266 263
266 267 264 259 254 250 251 249 249 243 235 232 235 240 245 244 252 256 258 262 267 268 262 259 254 249 252 255 257 257 257 258 259 259 258 259 259 258 262 265 267 270 268
268 269 268 267 260 259 258 257 256 243 235 237 242 248 252 251 252 258 260 264 268 271 271 271 263 253 251 253 257 258 258 258 261 263 266 265 263 263 264 265 268 270 271
269 272 272 271 264 260 256 254 248 245 245 244 249 255 261 260 256 259 265 266 269 276 275 274 268 256 252 255 258 259 259 259 261 264 269 268 266 266 267 270 270 270 271
273 269 268 267 265 262 256 249 239 242 248 250 252 255 261 261 253 257 261 264 265 274 280 276 269 256 250 254 258 262 263 264 266 267 271 272 269 268 270 269 271 271 270
272 263 261 264 262 258 249 241 236 242 251 252 253 254 260 256 249 250 258 261 263 275 279 273 267 257 253 259 263 266 265 265 269 268 272 272 271 272 272 272 272 274 275
263 256 260 254 252 246 241 239 239 241 250 252 254 256 254 250 256 259 265 265 272 280 279 275 263 261 263 265 268 268 268 266 267 270 273 273 275 277 278 277 276 275 276
251 255 260 251 244 241 238 242 253 248 251 256 256 256 259 257 265 267 272 275 278 281 281 273 267 266 268 264 266 269 269 273 273 275 276 278 278 278 279 279 278 278 278
255 256 267 260 251 244 240 250 253 257 255 253 256 258 263 264 269 275 277 277 277 276 275 276 275 269 268 269 268 268 270 276 277 277 279 279 279 280 282 283 282 281 282
262 261 266 270 262 252 250 256 259 262 257 256 259 263 267 271 279 281 279 277 274 273 273 272 274 271 268 270 272 273 276 279 279 280 282 282 282 283 284 285 285 285 284
269 265 265 270 263 258 255 259 262 264 261 259 262 266 270 273 278 278 275 271 272 273 274 274 274 274 273 272 275 277 278 280 282 283 284 285 287 285 286 286 287 287 287
273 266 268 270 269 264 265 263 266 265 267 266 267 268 271 277 276 274 273 270 272 275 277 279 279 277 277 277 278 279 281 284 282 285 286 287 289 290 288 288 288 288 288
273 277 277 266 264 267 274 274 273 271 274 274 275 270 274 278 277 276 277 273 275 278 279 281 281 280 283 286 286 287 287 288 286 286 289 290 291 290 290 289 290 289 290
264 272 271 268 265 272 281 282 279 278 278 278 280 276 277 278 276 276 276 276 276 279 282 283 285 288 290 291 294 294 294 292 291 291 292 293 293 293 294 294 293 292 292
260 266 271 277 279 280 282 283 281 277 278 281 282 283 282 278 278 277 278 280 279 279 282 286 288 290 292 293 295 294 293 294 294 294 295 295 295 295 295 295 294 293 293
256 266 276 279 281 285 287 290 286 280 279 282 284 287 286 284 280 280 280 280 279 280 283 286 289 291 293 294 295 294 294 294 294 294 295 295 295 295 295 294 293 293 294
259 266 270 271 277 285 289 287 284 285 290 289 287 288 289 286 283 282 281 281 282 283 286 288 290 294 296 295 294 293 293 294 295 296 297 297 295 295 295 294 293 293 294
267 267 269 272 278 282 288 284 281 287 292 291 290 290 291 289 285 285 286 286 285 286 287 289 290 291 293 294 295 295 296 297 297 298 298 299 298 296 296 295 295 295 296
269 271 273 275 282 284 286 289 287 288 290 290 287 286 286 287 287 288 288 287 287 288 290 291 292 292 292 293 295 296 297 298 299 299 299 299 298 298 297 295 295 296 297
270 271 271 273 279 282 285 288 285 286 290 291 289 287 286 287 289 292 291 289 289 290 291 292 293 293 293 294 295 296 296 297 297 298 299 299 299 299 298 297 296 296 297
269 272 274 279 280 280 282 282 283 285 287 288 287 286 286 286 287 289 290 290 290 290 292 293 295 295 295 295 296 297 298 298 298 298 298 298 298 299 299 298 298 298 298
272 272 273 279 281 281 282 283 283 283 285 285 286 286 286 288 290 291 291 292 293 293 293 294 296 297 297 297 298 299 299 299 299 299 298 298 298 298 298 299 299 299 299
274 275 278 280 282 283 283 283 286 287 286 286 285 286 288 290 291 290 292 293 293 293 294 295 296 297 297 297 299 299 299 299 299 299 299 299 298 299 299 299 299 299 300
274 277 278 279 281 283 285 284 285 287 288 287 287 287 289 291 292 291 291 292 293 293 293 294 295 296 297 298 299 299 299 299 299 299 299 300 299 300 300 300 300 300 300
Height
5864 5863 5863 5863 5863 5862 5862 5862 5862 5862 5862 5863 5863 5863 5863 5864 5864 5864 5864 5864 5864 5864 5864 5864 5864 5864 5864 5864 5864 5864 5865 5865 5865 5866 5866 5866 5866 5866 5867 5867 5867 5867 5866
5862 5862 5861 5861 5861 5861 5861 5861 5861 5861 5861 5861 5862 5862 5862 5862 5862 5863 5863 5863 5863 5862 5862 5862 5862 5862 5862 5862 5862 5862 5862 5863 5863 5864 5864 5864 5864 5864 5864 5864 5864 5864 5864
5861 5860 5860 5860 5859 5859 5859 5859 5859 5859 5860 5860 5861 5861 5861 5861 5861 5861 5861 5861 5861 5861 5861 5860 5860 5860 5860 5861 5861 5861 5861 5861 5861 5861 5862 5862 5862 5862 5862 5861 5861 5861 5861
5859 5859 5858 5858 5858 5858 5858 5858 5858 5858 5858 5859 5859 5860 5860 5860 5859 5860 5860 5860 5859 5859 5858 5858 5857 5857 5858 5858 5859 5859 5859 5859 5859 5859 5859 5859 5859 5859 5859 5859 5858 5858 5858
5857 5857 5857 5857 5856 5857 5857 5857 5857 5857 5857 5858 5858 5858 5858 5858 5858 5858 5858 5858 5858 5857 5856 5855 5854 5854 5855 5856 5856 5857 5857 5857 5857 5857 5856 5856 5856 5856 5856 5855 5855 5855 5855
5856 5856 5855 5855 5855 5855 5855 5855 5856 5856 5856 5856 5857 5857 5857 5856 5857 5856 5856 5856 5856 5855 5854 5853 5851 5851 5853 5854 5854 5854 5854 5855 5854 5854 5854 5853 5853 5853 5853 5852 5852 5852 5851
5854 5854 5854 5854 5854 5854 5854 5854 5854 5855 5855 5855 5855 5855 5855 5855 5855 5855 5855 5854 5854 5854 5853 5852 5851 5850 5851 5852 5852 5852 5852 5852 5852 5851 5851 5850 5850 5850 5850 5849 5849 5848 5848
5853 5853 5853 5853 5853 5853 5853 5853 5853 5853 5854 5854 5854 5854 5854 5855 5854 5854 5853 5853 5853 5852 5851 5851 5850 5850 5850 5850 5850 5850 5850 5850 5849 5849 5848 5848 5847 5847 5846 5846 5845 5844 5844
5852 5852 5852 5852 5852 5852 5852 5852 5852 5852 5852 5853 5853 5853 5853 5853 5853 5853 5852 5852 5851 5850 5850 5849 5849 5849 5849 5848 5848 5848 5847 5847 5846 5846 5846 5845 5845 5844 5843 5842 5842 5841 5840
5851 5851 5851 5851 5851 5851 5851 5851 5851 5851 5851 5851 5852 5852 5852 5852 5852 5851 5851 5850 5850 5849 5848 5848 5847 5847 5847 5846 5846 5845 5845 5844 5844 5844 5843 5842 5841 5841 5840 5839 5838 5837 5836
5850 5850 5850 5850 5850 5850 5850 5850 5850 5850 5850 5850 5851 5851 5850 5850 5850 5850 5850 5849 5848 5848 5847 5846 5846 5845 5844 5844 5844 5843 5843 5842 5842 5841 5840 5839 5838 5837 5836 5835 5834 5833 5832
5850 5850 5850 5849 5849 5849 5850 5849 5849 5849 5849 5849 5849 5849 5849 5849 5849 5848 5848 5847 5847 5846 5845 5845 5844 5843 5843 5842 5841 5841 5840 5840 5839 5838 5837 5836 5835 5834 5833 5831 5830 5829 5828
5849 5849 5849 5848 5848 5848 5848 5848 5848 5848 5848 5848 5848 5848 5848 5847 5847 5846 5846 5845 5845 5844 5843 5842 5842 5841 5840 5840 5839 5838 5838 5837 5836 5835 5833 5832 5831 5830 5829 5827 5826 5825 5823
5848 5848 5848 5847 5847 5847 5847 5847 5847 5847 5847 5847 5847 5846 5846 5845 5845 5844 5844 5844 5843 5842 5841 5841 5840 5839 5838 5837 5837 5836 5835 5833 5832 5831 5830 5828 5827 5826 5824 5823 5821 5820 5819
5847 5847 5846 5846 5846 5846 5846 5846 5845 5845 5845 5845 5845 5844 5844 5843 5843 5842 5842 5841 5841 5840 5840 5838 5838 5837 5836 5835 5834 5832 5831 5830 5829 5827 5826 5824 5823 5822 5820 5818 5817 5815 5813
5845 5845 5845 5845 5845 5845 5844 5844 5844 5844 5843 5843 5843 5842 5842 5841 5841 5840 5839 5839 5838 5838 5837 5836 5835 5834 5833 5832 5831 5829 5828 5827 5825 5824 5822 5820 5819 5817 5815 5813 5811 5810 5808
5844 5844 5844 5844 5843 5843 5843 5843 5842 5842 5842 5841 5841 5840 5840 5839 5838 5838 5837 5836 5836 5835 5835 5834 5833 5831 5830 5829 5827 5826 5824 5823 5821 5820 5818 5816 5814 5812 5810 5808 5806 5804 5802
5843 5842 5842 5842 5842 5842 5841 5841 5841 5840 5840 5839 5839 5838 5837 5837 5836 5835 5834 5834 5833 5832 5832 5831 5830 5828 5827 5825 5824 5822 5821 5819 5817 5815 5813 5811 5809 5807 5804 5802 5800 5798 5796
5841 5841 5841 5841 5841 5840 5840 5839 5839 5838 5838 5837 5836 5836 5835 5834 5833 5832 5832 5831 5830 5829 5828 5827 5826 5825 5823 5822 5820 5818 5816 5814 5812 5810 5808 5806 5803 5801 5799 5796 5794 5791 5789
5839 5839 5839 5839 5839 5838 5838 5837 5837 5836 5836 5835 5834 5833 5832 5832 5831 5830 5829 5828 5827 5826 5825 5824 5822 5821 5819 5817 5816 5814 5812 5809 5807 5805 5802 5800 5797 5795 5792 5790 5787 5785 5782
5837 5837 5837 5837 5836 5836 5836 5835 5835 5834 5833 5832 5832 5831 5830 5829 5828 5827 5826 5825 5824 5822 5821 5819 5818 5816 5815 5813 5811 5809 5807 5804 5802 5799 5796 5794 5791 5788 5785 5783 5780 5777 5774
5835 5835 5835 5834 5834 5834 5833 5833 5832 5831 5831 5830 5829 5828 5827 5826 5825 5824 5822 5821 5820 5818 5817 5815 5813 5811 5809 5807 5805 5803 5801 5799 5796 5793 5790 5787 5784 5781 5778 5776 5773 5770 5766
5832 5832 5832 5831 5831 5831 5830 5830 5829 5828 5828 5827 5825 5824 5823 5822 5821 5820 5818 5817 5815 5813 5812 5810 5808 5806 5804 5802 5799 5797 5794 5792 5789 5786 5783 5780 5777 5774 5771 5768 5765 5761 5758
5829 5829 5829 5828 5828 5827 5827 5826 5826 5825 5824 5823 5822 5820 5819 5818 5817 5815 5814 5812 5810 5808 5807 5805 5803 5800 5798 5796 5793 5791 5788 5785 5782 5779 5776 5773 5770 5766 5763 5759 5756 5752 5749
5826 5825 5825 5824 5824 5824 5823 5822 5822 5821 5820 5818 5817 5816 5815 5813 5812 5810 5808 5807 5805 5803 5801 5799 5797 5794 5792 5789 5786 5784 5781 5778 5775 5772 5768 5765 5762 5758 5755 5751 5747 5743 5740
5822 5822 5821 5821 5820 5820 5819 5818 5817 5816 5815 5814 5812 5811 5810 5808 5806 5804 5803 5801 5799 5797 5795 5792 5790 5788 5785 5782 5779 5776 5773 5770 5767 5764 5760 5757 5753 5749 5746 5742 5738 5734 5730